User: anonymous   Login
Location: Nairn
(57.5833°N, 3.8667°W)
Time: 15:05:02
(UTC+00:00)
Language:

Spot 1 - Orbit

View from above orbital plane
View from above orbital plane
View from above satellite
View from above satellite

Ground track
Ground track

The orbit data is extracted from the following two-line orbital elements,

1 16613U 86019A   20292.90209977 +.00000078 +00000-0 +22933-4 0  9997
2 16613 098.6956 063.5045 0141719 215.5174 143.6531 14.65216677507845
Epoch (UTC): 18 October 2020 21:39:01
Eccentricity: 0.0141719
inclination: 98.6956°
perigee height: 576 km
apogee height: 776 km
right ascension of ascending node: 63.5045°
argument of perigee: 215.5174°
revolutions per day: 14.65216677
mean anomaly at epoch: 143.6531°
orbit number at epoch: 50784

The dashed part of the orbit path shows where the satellite is in the earth's shadow,  

DLR